Regional Weather Roundup
Issued by NWS

Home | Current Version | Previous Version | Text Only | Print | Product List | Glossary Off
Versions: 1 2 3 4 5 6 7 8 9 10 11 12 13 14 15 16 17 18 19 20 21 22 23 24 25 26 27 28 29 30 31 32 33 34 35 36 37 38 39 40 41 42 43 44 45 46 47 48

000
ASUS45 KCYS 301210
RWRWY

WYOMING REGIONAL WEATHER ROUNDUP
NATIONAL WEATHER SERVICE CHEYENNE WY
600 AM MDT TUE SEP 30 2014

NOTE:  "FAIR" INDICATES FEW OR NO CLOUDS BELOW 12,000 FEET
WITH NO SIGNIFICANT WEATHER AND/OR OBSTRUCTIONS TO VISIBILITY.

WYZ001-301300-
YELLOWSTONE NATIONAL PARK

CITY           SKY/WX    TMP DP  RH WIND       PRES   REMARKS
LK YELLOWSTONE   N/A     38  36  92 CALM      29.95F
6HR MIN TEMP:  38; 6HR MAX TEMP:  39; 6HR PCP:  0.01;

W YELLOWSTONE  NOT AVBL

$$
WYZ002>013-054>058-071-098>099-301300-
NORTHERN WYOMING

CITY           SKY/WX    TMP DP  RH WIND       PRES   REMARKS
JACKSON        CLOUDY    43  43 100 SE9       29.93F
CODY           PTCLDY    50  36  57 W6        29.77S
GREYBULL       PTCLDY    43  42  97 CALM      29.73F FOG
6HR MIN TEMP:  44; 6HR MAX TEMP:  52;

WORLAND        CLEAR     42  40  92 SW5       29.75S
6HR MIN TEMP:  41; 6HR MAX TEMP:  52;

SHERIDAN       CLOUDY    51  46  83 W8        29.69F
6HR MIN TEMP:  48; 6HR MAX TEMP:  53;

BUFFALO        CLOUDY    53  39  59 NW20G28   29.71F
6HR MIN TEMP:  49; 6HR MAX TEMP:  53;

GILLETTE       LGT RAIN  50  48  93 N3        29.66F
6HR MIN TEMP:  50; 6HR MAX TEMP:  52; 6HR PCP:  0.17;

HULETT         CLOUDY    50  48  93 N5        29.66
NEWCASTLE      DRIZZLE   48  46  93 NW18G25   29.58

$$
WYZ014>020-022>026-101>103-301300-
CENTRAL WYOMING

CITY           SKY/WX    TMP DP  RH WIND       PRES   REMARKS
BIG PINEY      PTCLDY    36  33  89 NW5       29.95S WCI  32
6HR MIN TEMP:  35; 6HR MAX TEMP:  44;

PINEDALE       CLOUDY    39  37  93 W5        29.95S
DUBOIS         PTSUNNY   37  32  81 N7        29.89F WCI  32
LANDER         CLEAR     41  35  79 CALM      29.81R
6HR MIN TEMP:  38; 6HR MAX TEMP:  48;

RIVERTON       CLEAR     49  35  58 W17G28    29.79F
6HR MIN TEMP:  47; 6HR MAX TEMP:  50;

CASPER         CLOUDY    49  38  65 W13       29.76R
6HR MIN TEMP:  49; 6HR MAX TEMP:  53;

DOUGLAS        CLOUDY    53  40  61 W23       29.68R
6HR MIN TEMP:  49; 6HR MAX TEMP:  53; 6HR PCP:  0.01;


$$
WYZ021-027>030-104>119-301300-
SOUTHERN WYOMING

CITY           SKY/WX    TMP DP  RH WIND       PRES   REMARKS
EVANSTON       CLOUDY    41  40  96 SW12      30.00S
6HR MIN TEMP:  40; 6HR MAX TEMP:  42; 6HR PCP: TRACE;

KEMMERER       CLOUDY    39  39 100 W12       29.97F WCI  32
FORT BRIDGER     N/A     42  40  93 W12       30.00F
ROCK SPRINGS   PTCLDY    39  35  86 SW10      29.95S WCI  32
6HR MIN TEMP:  39; 6HR MAX TEMP:  43;

DIXON          CLOUDY    44  40  85 SW10      30.01R
RAWLINS        CLEAR     41  36  82 W22G33    29.91S
6HR MIN TEMP:  41; 6HR MAX TEMP:  46;

SARATOGA         N/A     41  36  81 W14       29.95S
LARAMIE        MOCLDY    43  32  65 W23G31    29.87R
6HR MIN TEMP:  43; 6HR MAX TEMP:  46; 6HR PCP:  0.01;

CHEYENNE       CLOUDY    50  36  58 W20G26    29.82R
6HR MIN TEMP:  45; 6HR MAX TEMP:  50; 6HR PCP:  0.02;

TORRINGTON     CLOUDY    50  48  93 SW7       29.65F
6HR MIN TEMP:  49; 6HR MAX TEMP:  50; 6HR PCP:  0.36;

PINE BLUFFS    CLOUDY    45  43  93 SW14      29.80S

$$


USA.gov is the U.S. government's official web portal to all federal, state and local government web resources and services.